Regional Weather Roundup
Issued by NWS Little Rock, AR

Home | Current Version | Previous Version | Text Only | Print | Product List | Glossary On
Versions: 1 2 3 4 5 6 7 8 9 10 11 12 13 14 15 16 17 18 19 20 21 22 23 24 25 26 27 28 29 30 31 32 33 34 35 36 37 38 39 40 41 42 43 44 45 46 47 48 49 50
000
ASUS44 KLZK 061705
RWRLZK

WEATHER ROUNDUP FOR ARKANSAS
NATIONAL WEATHER SERVICE LITTLE ROCK AR
1200 PM CDT FRI MAY 06 2016

NOTE: "FAIR" INDICATES FEW OR NO CLOUDS BELOW 12,000 FEET WITH NO
SIGNIFICANT WEATHER AND/OR OBSTRUCTIONS TO VISIBILITY.

ARZ001-003-010-029-061800-
NORTHWEST ARKANSAS

CITY           SKY/WX    TMP DP  RH WIND       PRES   REMARKS
FAYETTEVILLE   SUNNY     69  45  41 VRB5      30.14F
FORT SMITH     SUNNY     72  46  39 CALM      30.14F
HARRISON       SUNNY     71  36  27 VRB6      30.15R
BENTONVILLE    SUNNY     72  37  28 CALM      30.16S
ROGERS         SUNNY     71  43  36 VRB3      30.15F
SILOAM SPGS    SUNNY     72  43  35 CALM      30.15F
HIGHFILL       SUNNY     72  43  35 SW6       30.14F
SPRINGDALE     SUNNY     70  39  32 SW8       30.16S
$$

ARZ004-005-016-061800-
NORTH CENTRAL ARKANSAS

CITY           SKY/WX    TMP DP  RH WIND       PRES   REMARKS
BATESVILLE     SUNNY     70  43  37 W6        30.13S
FLIPPIN        SUNNY    N/A N/A N/A CALM      30.11S
MTN HOME       SUNNY     69  41  36 VRB5      30.12S
$$

ARZ040-041-061800-
WEST CENTRAL ARKANSAS

CITY           SKY/WX    TMP DP  RH WIND       PRES   REMARKS
MENA           SUNNY     73  48  40 CALM      30.15S
MOUNT IDA      SUNNY     70  44  39 CALM      30.12F
$$

ARZ009-017-025-026-028-061800-
NORTHEAST ARKANSAS

CITY           SKY/WX    TMP DP  RH WIND       PRES   REMARKS
CORNING          N/A     70  45  40 W9        30.11F
JONESBORO      SUNNY     70  45  40 NW8       30.11F
NEWPORT        SUNNY     70  38  31 CALM      30.13F
BLYTHEVILLE    MOSUNNY   72  46  39 MISG      30.10S
$$

ARZ022-023-033-042-044-061800-
CENTRAL ARKANSAS

CITY           SKY/WX    TMP DP  RH WIND       PRES   REMARKS
LITTLE ROCK    MOSUNNY   72  45  37 VRB7      30.14F
N LITTLE ROCK    N/A     70  46  42 CALM      30.13S
SEARCY         SUNNY     70  45  40 CALM      30.15
HOT SPRINGS    SUNNY     71  47  42 VRB5      30.14F
RUSSELLVILLE   SUNNY     68  45  43 VRB3      30.14F
CLINTON        FAIR      70  45  40 CALM      30.14S
$$

ARZ036-061800-
EAST ARKANSAS

CITY           SKY/WX    TMP DP  RH WIND       PRES   REMARKS
WEST MEMPHIS   MOSUNNY   68  47  46 N8        30.10F
$$

ARZ050-053-066-070-073-061800-
SOUTHWEST ARKANSAS

CITY           SKY/WX    TMP DP  RH WIND       PRES   REMARKS
ARKADELPHIA    FAIR      70  51  50 VRB3      30.15F
CAMDEN         SUNNY     72  43  35 SW3       30.14F
TEXARKANA      SUNNY     72  48  42 CALM      30.14S
EL DORADO      SUNNY     71  44  37 VRB3      30.14S
DE QUEEN       SUNNY     72  51  47 NE5       30.13S
$$

ARZ056-057-069-061800-
SOUTHEAST ARKANSAS

CITY           SKY/WX    TMP DP  RH WIND       PRES   REMARKS
PINE BLUFF     SUNNY     69  45  41 E5        30.14F
STUTTGART      SUNNY     70  45  40 N6        30.15S
MONTICELLO     SUNNY     71  45  39 MISG      30.13F

$$





USA.gov is the U.S. government's official web portal to all federal, state and local government web resources and services.